Location: Fort Worth, Tx
(32.7431°N, 97.3695°W)
Time: 19:25:15
(UTC-04:00)

Transit 4A - Pass Details

Date: 05 March 2024
Orbit: 871 x 972 km, 66.8° (Epoch: 22 April)

Event Time Altitude Azimuth Distance (km) Brightness Sun altitude
Rises 23:58:13 0° 196° (SSW) 3,617 - -54.0°
Reaches altitude 10° 00:00:47 10° 194° (SSW) 2,663 - -54.4°
Maximum altitude 00:06:56 67° 113° (ESE) 1,006 - -55.3°
Drops below altitude 10° 00:12:57 10° 32° (NNE) 2,608 - -56.2°
Sets 00:15:27 0° 29° (NNE) 3,538 - -56.6°
